Regional Weather Roundup
Issued by NWS

Home | Current Version | Previous Version | Graphics & Text | Print | Product List | Glossary On
Versions: 1 2 3 4 5 6 7 8 9 10 11 12 13 14 15 16 17 18 19 20 21 22 23 24 25 26 27 28 29 30 31 32 33 34 35 36 37 38 39 40 41 42 43 44 45 46 47 48 49 50
000
ASUS43 KBIS 262110
RWRND
NORTH DAKOTA REGIONAL WEATHER ROUNDUP
NATIONAL WEATHER SERVICE EASTERN NORTH DAKOTA/GRAND FORKS ND
400 PM CDT MON JUN 26 2017

  NOTE: "FAIR" INDICATES FEW OR NO CLOUDS BELOW 12,000 FEET WITH NO
  SIGNIFICANT WEATHER AND/OR OBSTRUCTIONS TO VISIBILITY.

NDZ001>003-009>011-017-262200-
...NORTHWEST NORTH DAKOTA...

CITY           SKY/WX    TMP DP  RH WIND       PRES   REMARKS
WILLISTON      FAIR      84  41  21 SE12G17   30.04F
MINOT          FAIR      74  38  27 SE12      30.10F
MINOT AFB      FAIR      73  41  31 S7G16     30.09F
$$

NDZ018>021-031>035-040>046-262200-
...SOUTHWEST NORTH DAKOTA...

CITY           SKY/WX    TMP DP  RH WIND       PRES   REMARKS
BISMARCK       FAIR      76  44  32 VRB6      30.14F
DICKINSON      FAIR      76  29  17 VRB6G20   30.08F
GARRISON         N/A     73  41  31 S8        30.11F
HETTINGER      FAIR      79  37  22 S10       30.12F
$$

NDZ004>008-012>016-024-026-027-054-262200-
...NORTHEAST NORTH DAKOTA...

CITY           SKY/WX    TMP DP  RH WIND       PRES   REMARKS
GRAND FORKS    FAIR      73  39  29 CALM      30.12F
GRAND FORKS AF FAIR      72  38  29 NW6       30.14F
DEVILS LAKE    FAIR      69  34  27 SW6       30.16F
$$

NDZ022-023-025-028>030-036>039-047>053-262200-
...SOUTHEAST NORTH DAKOTA...

CITY           SKY/WX    TMP DP  RH WIND       PRES   REMARKS
JAMESTOWN      FAIR      70  39  32 CALM      30.16F
FARGO          FAIR      74  37  26 W5        30.14F
WAHPETON       FAIR      70  34  26 NW6       30.16F
$$




USA.gov is the U.S. government's official web portal to all federal, state and local government web resources and services.